Regional Weather Roundup
Issued by NWS Huntsville, AL

Home | Current Version | Previous Version | Text Only | Print | Product List | Glossary On
Versions: 1 2 3 4 5 6 7 8 9 10 11 12 13 14 15 16 17 18 19 20 21 22 23 24 25 26 27 28 29 30 31 32 33 34 35 36 37 38 39 40 41 42 43 44 45 46 47 48 49 50
000
ASUS44 KHUN 192010
RWRHUN

WEATHER ROUNDUP FOR THE TENNESSEE VALLEY
NATIONAL WEATHER SERVICE HUNTSVILLE AL
200 PM CST SUN FEB 19 2017

ALZ001>004-192100-
NORTHWEST ALABAMA

CITY           SKY/WX    TMP DP  RH WIND       PRES   REMARKS
COURTLAND HCN    N/A     68 N/A N/A N3          N/A
RUSSELLVILLE     N/A     70 N/A N/A MISG        N/A
SHOALS AIRPORT SUNNY     71  48  43 CALM      30.11F
SHOALS TVA RES   N/A     70 N/A N/A MISG        N/A
$$

ALZ005>007-016-192100-
NORTH CENTRAL ALABAMA

CITY           SKY/WX    TMP DP  RH WIND       PRES   REMARKS
CULLMAN AG STN   N/A     68 N/A N/A N5          N/A
DECATUR AP     MOSUNNY   69  53  56 S3        30.10F
HUNTSVILLE AP  MOSUNNY   71  52  50 NW5       30.10S
MERIDIANVILLE  SUNNY     68  46  45 CALM      30.11S
REDSTONE ARSN  SUNNY     69  50  51 N6        30.09S
VINEMONT AP    FAIR      70  47  43 W7        30.13S
$$

ALZ008>010-192100-
NORTHEAST ALABAMA

CITY           SKY/WX    TMP DP  RH WIND       PRES   REMARKS
ALBERTVILLE    SUNNY     68  54  60 W5        30.09S
FORT PAYNE     SUNNY     68  41  37 NW8       30.09R
SCOTTSBORO AP  SUNNY     70  50  49 N3        30.09F
SCOTTSBORO HCN   N/A     68 N/A N/A MISG        N/A
VALLEY HEAD      N/A     68 N/A N/A MISG        N/A
$$

TNZ076-096-097-192100-
SOUTHEASTERN MIDDLE TENNESSEE

CITY           SKY/WX    TMP DP  RH WIND       PRES   REMARKS
TULLAHOMA      MOSUNNY   66  46  48 N3        30.12S
WINCHESTER     SUNNY     64  48  55 N6        30.12R
$$

...SURROUNDING SITES...

CITY           SKY/WX    TMP DP  RH WIND       PRES   REMARKS
ATLANTA        MOSUNNY   68  49  50 N13       30.06F
ANNISTON       SUNNY     71  49  45 N9        30.09S
BIRMINGHAM     SUNNY     72  48  42 NW7       30.12R
CHATTANOOGA    MOSUNNY   67  47  48 N12       30.09F
CORINTH        FAIR      72  50  46 SW5       30.08F
DALTON         SUNNY     63  50  63 N8        30.10R
GADSDEN        SUNNY     72  49  44 N9        30.09S
GOLDEN TRNGL   SUNNY     73  52  46 CALM      30.04F
HALEYVILLE     FAIR      72  50  45 CALM      30.12F
JACKSON TN     SUNNY     72  54  53 NE6       30.08F
MEMPHIS        MOSUNNY   75  53  46 CALM      30.06F
NASHVILLE      MOSUNNY   67  50  54 E3        30.11F
OXFORD MS      FAIR      73  46  38 N3        30.08F
ROME           SUNNY     69  48  47 N12       30.08R
SAVANNAH       SUNNY     72  52  49 CALM      30.08F
TUPELO         SUNNY     73  47  39 CALM      30.08F
TUSCALOOSA     SUNNY     75  50  41 NE8       30.08F
$$

...GULF COAST WEATHER...

CITY           SKY/WX    TMP DP  RH WIND       PRES   REMARKS
GULFPORT       SUNNY     77  57  50 S9        30.05S
PASCAGOULA     SUNNY     82  49  31 SE5       30.05S
MOBILE         MOSUNNY   82  52  35 NW5       30.06F
GULF SHORES    CLEAR     71  65  80 SE9G17    30.06S
PENSACOLA      MOSUNNY   75  60  59 SE8       30.05F
DESTIN         SUNNY     74  64  71 S7        30.05S
PANAMA CITY    SUNNY     76  63  63 SW13      30.04F
APPALACHICOLA  MOSUNNY   72  67  84 S14       30.05S
$$




USA.gov is the U.S. government's official web portal to all federal, state and local government web resources and services.